Regional Weather Roundup
Issued by NWS

Home | Current Version | Previous Version | Graphics & Text | Print | Product List | Glossary On
Versions: 1 2 3 4 5 6 7 8 9 10 11 12 13 14 15 16 17 18 19 20 21 22 23 24 25 26 27 28 29 30 31 32 33 34 35 36 37 38 39 40 41 42 43 44 45 46 47 48 49 50
000
ASUS45 KBOU 051207
RWRCO

WEATHER ROUNDUP FOR COLORADO
NATIONAL WEATHER SERVICE DENVER/BOULDER CO
600 AM MDT TUE MAY 05 2015

NOTE: "FAIR" INDICATES FEW OR NO CLOUDS BELOW 12000 FEET WITH NO
SIGNIFICANT WEATHER AND/OR OBSTRUCTIONS TO VISIBILITY.

COZ001>005-013-030-031-051300-
...NORTHWEST COLORADO...

CITY           SKY/WX    TMP DP  RH WIND       PRES   REMARKS
CRAIG          PTCLDY    34  32  92 SW3       29.95F
HAYDEN         NOT AVBL
MEEKER         PTCLDY    37  34  89 NE3       29.95S
MOUNT WERNER   NOT AVBL
STEAMBOAT SPGS PTCLDY    36  33  90 CALM      29.96F
WALDEN         CLEAR     30  28  93 SE5       30.02F WCI  25
$$

COZ006>008-011-051300-
...WEST CENTRAL VALLEYS...

CITY           SKY/WX    TMP DP  RH WIND       PRES   REMARKS
GRAND JUNCTION CLOUDY    55  43  63 E13       29.87F
MONTROSE       CLOUDY    49  46  90 SE8       29.93F
EAGLE          MOCLDY    39  37  93 E6        30.00F
RIFLE          MOCLDY    44  40  85 SW3       29.92S
DELTA          CLOUDY    54  46  74 E3        29.91F
NUCLA          DRIZZLE   48  45  87 E3        29.97S
$$

COZ017>023-064>068-051300-
...SOUTHWEST COLORADO...

CITY           SKY/WX    TMP DP  RH WIND       PRES   REMARKS
DURANGO        LGT RAIN  46  44  93 NE3       29.94F
CORTEZ         LGT RAIN  47  46  97 CALM      29.93F
PAGOSA SPRINGS DRIZZLE   42  41  95 N3        29.96F
TELLURIDE      DRIZZLE   39  39  98 CALM      30.03F
WOLF CREEK PAS NOT AVBL
$$

COZ009-010-012-014-032>034-037-058>063-051300-
...CENTRAL COLORADO...

CITY           SKY/WX    TMP DP  RH WIND       PRES   REMARKS
ASPEN          CLOUDY    39  36  89 SW3       29.98F
BUENA VISTA    NOT AVBL
COPPER MTN     CLOUDY    36  28  75 SE10      30.15S
BERTHOUD PASS  HAZE      27  19  74 E23G31    30.19S VSB<1/4 WCI  12
COTTONWOOD PAS LGT RAIN  37  36  93 CALM      30.10F VSB 1/2
GUNNISON       CLOUDY    45  37  76 N3        30.02S
KREMMLING      FOG       36  34  93 CALM      30.03F VSB 3/4
LEADVILLE      CLOUDY    34  34 100 SE5       30.08F WCI  30
SALIDA         CLOUDY    43  41  95 CALM      30.11F
SUNLIGHT       CLOUDY    36  32  87 CALM      30.13S
WILKERSON PASS FOG       32  32 100 S3        30.17F VSB 1/2
$$

COZ069>075-051300-
...SAN LUIS VALLEY/SANGRE DE CRISTO MOUNTAINS...

CITY           SKY/WX    TMP DP  RH WIND       PRES   REMARKS
ALAMOSA        LGT RAIN  42  40  92 SW9       29.98F
LA VETA PASS   DRZL/FOG  36  36 100 MISG      30.07F VSB 1/2
SAGUACHE       LGT RAIN  45  43  93 CALM      30.00F
$$

COZ035-036-038>040-051300-
...NORTHERN COLORADO FRONT RANGE...

CITY           SKY/WX    TMP DP  RH WIND       PRES   REMARKS
DENVER INTL AP CLOUDY    49  47  93 E7        29.99F FOG
DMNS CITY PARK   N/A     48  47  97 N1        29.98F
AURORA         MOCLDY    48  48 100 SE6       29.99F
FRONT RANGE AP NOT AVBL
ERIE MUNI ARPT CLOUDY    49  48  96 CALM      30.00S FOG
BOULDER MUN AP FOG       48  48 100 CALM      29.99F VSB 3/4
CENTENNIAL     CLOUDY    49  47  93 NW3       29.99F
BROOMFIELD     CLOUDY    46  46 100 CALM      30.01S FOG
FORT COLLINS   CLOUDY    46  45  93 SE10      30.01F VSB 3/4
LONGMONT       CLOUDY    51  49  93 E5        30.02S FOG
$$

COZ041-046-047-076>085-087-088-051300-
...PIKES PEAK/PALMER DIVIDE AND SOUTHERN FOOTHILLS...

CITY           SKY/WX    TMP DP  RH WIND       PRES   REMARKS
COLO. SPRINGS  LGT RAIN  48  48 100 SE10      30.01F FOG
A. F. ACADEMY  DRIZZLE   46  46 100 CALM      30.00F FOG
ELLICOTT       LGT RAIN N/A N/A N/A MISG      29.99F
FALCON         RAIN      46  46 100 E3        30.03F
FORT CARSON    CLOUDY    49  49 100 SE9       29.98F
LIMON          FOG       46  46 100 SE9       30.01F VSB 1/2
MONUMENT HILL  CLOUDY    43  43 100 SE3       30.02F FOG
TRINIDAD       CLOUDY    49  48  97 E6        29.95F FOG
$$

COZ042>045-048>051-090-091-051300-
...NORTHEAST COLORADO...

CITY           SKY/WX    TMP DP  RH WIND       PRES   REMARKS
GREELEY ARPT   CLOUDY    46  43  87 E9        30.01F
AKRON          CLOUDY    46  46 100 SE7       30.02F FOG
BURLINGTON     FOG       51  49  92 E7        30.00F VSB 1/4
WRAY           CLOUDY   N/A N/A N/A CALM      30.02F FOG
STERLING       CLOUDY    46  46 100 CALM      30.02F
HOLYOKE        NOT AVBL
FORT MORGAN    CLOUDY    46  45  95 E9        30.02F FOG
$$

COZ086-089-092>099-051300-
...SOUTHEAST COLORADO...

CITY           SKY/WX    TMP DP  RH WIND       PRES   REMARKS
PUEBLO         CLOUDY    52  51  97 E9        29.95F
LA JUNTA       LGT RAIN  54  53  97 E14       29.94F FOG
LAMAR          LGT RAIN  53  53 100 E10       29.94F FOG
SPRINGFIELD      N/A     53  53 100 E13       29.95F
$$



USA.gov is the U.S. government's official web portal to all federal, state and local government web resources and services.